This demonstration page uses our WeatherBlox Daily Observations layout. Learn more.

40.92945, -100.16068

Hourly Observations for March 11, 2017

Temp ( °F °C ) Dew Point ( °F °C ) Humidity (%) Winds ( mph kmh ) Pressure ( in mb ) Visibility ( mi km ) Precip ( " mm )
12:15 am 00:15 Mostly Cloudy 26 -3.5 9 -13 48 48 ESE 15 24 30.42 1030 10 16.0934 0 0
12:35 am 00:35 Cloudy 26 -3.5 8 -13.1 48 48 ESE 14 22 30.42 1030 10 16.0934 0 0
12:55 am 00:55 Cloudy 26 -3.5 8 -13.3 47 47 SE 14 22 30.42 1030 10 16.0934 0 0
1:15 am 01:15 Cloudy 26 -3.5 8 -13.3 47 47 ESE 10 17 30.42 1030 10 16.0934 0 0
1:35 am 01:35 Cloudy 26 -3.5 8 -13.2 47 47 E 10 17 30.45 1031 10 16.0934 0 0
1:55 am 01:55 Cloudy with Light Snow 26 -3.3 9 -12.7 49 49 ESE 14 22 30.42 1030 10 16.0934 0 0
2:15 am 02:15 Cloudy with Light Snow 25 -3.7 11 -11.6 55 55 SE 14 22 30.42 1030 10 16.0934 0 0
2:35 am 02:35 Cloudy 25 -3.7 11 -11.4 56 56 SE 12 19 30.42 1030 10 16.0934 0 0
2:55 am 02:55 Cloudy with Light Snow 25 -4 14 -9.9 64 64 SE 9 15 30.45 1031 7 11.26538 0 0
3:15 am 03:15 Cloudy with Light Snow 24 -4.2 15 -9.3 68 68 ESE 10 17 30.45 1031 7 11.26538 0.01 0.254
3:35 am 03:35 Cloudy with Light Snow 24 -4.6 17 -8.5 74 74 E 9 15 30.45 1031 2.5 4.02335 0.01 0.254
3:55 am 03:55 Cloudy with Light Snow 22 -5.3 18 -7.8 83 83 ESE 10 17 30.45 1031 1.75 2.816345 0.01 0.254
4:15 am 04:15 Cloudy with Light Snow 22 -5.5 18 -7.8 84 84 E 9 15 30.45 1031 7 11.26538 0 0
4:35 am 04:35 Cloudy with Light Snow 22 -5.5 18 -7.8 84 84 E 8 13 30.45 1031 10 16.0934 0.01 0.254
4:55 am 04:55 Cloudy 22 -5.5 18 -7.9 83 83 ESE 9 15 30.45 1031 10 16.0934 0.01 0.254
5:15 am 05:15 Cloudy with Light Snow 22 -5.5 18 -7.7 85 85 ESE 7 11 30.45 1031 7 11.26538 0 0
5:35 am 05:35 Cloudy with Light Snow 22 -5.5 18 -7.7 85 85 E 6 9 30.5 1033 10 16.0934 0 0
5:55 am 05:55 Cloudy with Light Snow 22 -5.5 19 -7.5 86 86 E 8 13 30.45 1031 2.5 4.02335 0 0
6:15 am 06:15 Cloudy with Light Snow 22 -5.6 19 -7.5 87 87 E 6 9 30.48 1032 2 3.21868 0 0
6:35 am 06:35 Cloudy with Light Snow 22 -5.7 19 -7.5 87 87 E 7 11 30.5 1033 1.75 2.816345 0 0
6:55 am 06:55 Cloudy with Light Snow 22 -5.6 19 -7.5 87 87 E 6 9 30.5 1033 4 6.43736 0 0
7:15 am 07:15 Cloudy with Light Snow 22 -5.7 19 -7.5 87 87 E 6 9 30.5 1033 1.25 2.011675 0.01 0.254
7:35 am 07:35 Cloudy with Light Snow 22 -5.7 19 -7.5 87 87 ESE 6 9 30.5 1033 3 4.82802 0.01 0.254
7:55 am 07:55 Cloudy with Light Snow 22 -5.5 19 -7.5 86 86 ESE 6 9 30.53 1034 4 6.43736 0.01 0.254
8:15 am 08:15 Cloudy with Light Snow 22 -5.5 19 -7.5 86 86 E 7 11 30.53 1034 3 4.82802 0 0
8:35 am 08:35 Cloudy with Mist and Fog 22 -5.5 19 -7.5 86 86 E 6 9 30.56 1035 5 8.0467 0 0
8:55 am 08:55 Cloudy 22 -5.3 18 -7.6 84 84 ESE 5 7 30.56 1035 7 11.26538 0 0
9:15 am 09:15 Cloudy 23 -5 19 -7.4 83 83 SE 5 7 30.56 1035 10 16.0934 0 0
9:35 am 09:35 Cloudy 23 -4.8 19 -7.2 84 84 SSE 6 9 30.56 1035 10 16.0934 0 0
9:55 am 09:55 Cloudy 24 -4.4 20 -6.7 84 84 SSE 5 7 30.53 1034 10 16.0934 0 0
10:15 am 10:15 Cloudy 25 -4.1 20 -6.6 83 83 Calm 30.53 1034 10 16.0934 0 0
10:35 am 10:35 Cloudy 25 -4 20 -6.8 81 81 S 5 7 30.53 1034 10 16.0934 0 0
10:55 am 10:55 Cloudy 25 -3.8 20 -6.9 79 79 SSW 3 6 30.53 1034 10 16.0934 0 0
11:15 am 11:15 Cloudy 26 -3.5 20 -6.8 78 78 Calm 30.53 1034 10 16.0934 0 0
11:35 am 11:35 Cloudy 26 -3.4 20 -6.4 80 80 W 3 6 30.53 1034 10 16.0934 0.01 0.254
11:55 am 11:55 Cloudy 26 -3.3 20 -6.5 79 79 Calm 30.53 1034 10 16.0934 0.01 0.254
12:15 pm 12:15 Cloudy 27 -3 20 -6.5 77 77 Calm 30.53 1034 10 16.0934 0 0
12:35 pm 12:35 Cloudy 27 -2.7 21 -6 78 78 Calm 30.53 1034 10 16.0934 0 0
12:55 pm 12:55 Cloudy 29 -1.8 22 -5.4 77 77 SSW 5 7 30.5 1033 10 16.0934 0 0
1:15 pm 13:15 Cloudy 30 -1.2 23 -5 76 76 W 3 6 30.5 1033 10 16.0934 0 0
1:35 pm 13:35 Cloudy 31 -0.7 24 -4.5 76 76 SSW 5 7 30.5 1033 10 16.0934 0 0
1:55 pm 13:55 Cloudy 32 -0.2 25 -4.1 75 75 WSW 5 7 30.5 1033 10 16.0934 0 0
2:15 pm 14:15 Cloudy 32 0 25 -3.9 75 75 SW 5 7 30.5 1033 10 16.0934 0 0
2:35 pm 14:35 Cloudy 32 0 26 -3.6 77 77 W 5 7 30.5 1033 10 16.0934 0 0
2:55 pm 14:55 Cloudy 32 0 25 -3.7 76 76 Calm 30.5 1033 10 16.0934 0 0
3:15 pm 15:15 Cloudy 32 0.1 26 -3.6 76 76 Calm 30.5 1033 10 16.0934 0 0
3:35 pm 15:35 Cloudy 33 0.7 26 -3.3 75 75 Calm 30.5 1033 10 16.0934 0 0
3:55 pm 15:55 Cloudy 33 0.7 26 -3.4 74 74 Calm 30.5 1033 10 16.0934 0 0
4:15 pm 16:15 Mostly Cloudy 35 1.7 26 -3.1 71 71 SSE 3 6 30.48 1032 10 16.0934 0 0
4:35 pm 16:35 Mostly Cloudy 36 2.4 27 -2.8 69 69 SSW 3 6 30.48 1032 10 16.0934 0 0
4:55 pm 16:55 Cloudy 35 1.9 27 -2.8 71 71 SSE 3 6 30.45 1031 10 16.0934 0 0
5:15 pm 17:15 Cloudy 36 2.2 28 -2.4 72 72 SSE 6 9 30.45 1031 10 16.0934 0 0
5:35 pm 17:35 Mostly Cloudy 36 2.1 27 -2.7 71 71 S 3 6 30.45 1031 10 16.0934 0 0
5:55 pm 17:55 Sunny 36 2 27 -2.8 71 71 SSE 3 6 30.48 1032 10 16.0934 0 0
6:15 pm 18:15 Sunny 35 1.5 27 -2.9 73 73 SE 5 7 30.48 1032 10 16.0934 0 0
6:35 pm 18:35 Sunny 33 0.6 26 -3.3 75 75 SE 6 9 30.5 1033 10 16.0934 0 0
6:55 pm 18:55 Clear 32 -0.1 25 -3.8 76 76 SE 5 7 30.5 1033 10 16.0934 0 0
7:15 pm 19:15 Clear 32 -0.1 25 -3.7 77 77 ESE 5 7 30.5 1033 10 16.0934 0 0
7:35 pm 19:35 Clear 30 -1.2 25 -4 82 82 ESE 5 7 30.5 1033 10 16.0934 0 0
7:55 pm 19:55 Clear 31 -0.6 25 -4 78 78 ESE 3 6 30.5 1033 10 16.0934 0 0
8:15 pm 20:15 Clear 29 -1.5 24 -4.4 81 81 E 5 7 30.5 1033 10 16.0934 0 0
8:35 pm 20:35 Clear 28 -2.1 24 -4.4 84 84 ESE 7 11 30.53 1034 10 16.0934 0 0
8:55 pm 20:55 Clear 30 -1 25 -3.8 82 82 ESE 7 11 30.5 1033 10 16.0934 0 0
9:15 pm 21:15 Clear 29 -1.4 24 -4.3 81 81 ESE 8 13 30.5 1033 10 16.0934 0 0
9:35 pm 21:35 Clear 28 -2.4 23 -5 83 83 ESE 6 9 30.53 1034 10 16.0934 0 0
9:55 pm 21:55 Clear 28 -2.5 23 -4.9 84 84 SE 6 9 30.53 1034 10 16.0934 0 0
10:15 pm 22:15 Clear 27 -3 23 -5.2 85 85 SE 5 7 30.53 1034 10 16.0934 0 0
10:35 pm 22:35 Clear 26 -3.5 22 -5.5 86 86 ESE 5 7 30.53 1034 10 16.0934 0 0
10:55 pm 22:55 Clear 25 -3.7 22 -5.4 88 88 SE 6 9 30.5 1033 10 16.0934 0 0
11:15 pm 23:15 Clear 25 -3.7 22 -5.6 87 87 SSE 5 7 30.5 1033 10 16.0934 0 0
11:35 pm 23:35 Clear 24 -4.5 21 -6 89 89 SE 5 7 30.5 1033 10 16.0934 0 0
11:55 pm 23:55 Clear 25 -3.9 22 -5.4 89 89 SE 6 9 30.5 1033 10 16.0934 0 0

Powered by AerisWeather